Location: ???????
(55.4362°N, 38.1183°E)
Time: 03:37:24
(UTC+00:00)

Cosmos 372 Rocket - Pass Details

Date: 17 June 2021
Orbit: 737 x 768 km, 74.1° (Epoch: 26 July)

Event Time Altitude Azimuth Distance (km) Brightness Sun altitude
Rises 23:00:55 0° 331° (NNW) 3,233 7.9 -8.7°
Reaches altitude 10° 23:03:18 10° 331° (NNW) 2,308 7.1 -8.6°
Maximum altitude 23:08:32 81° 245° (WSW) 782 4.0 -8.3°
Drops below altitude 10° 23:13:47 10° 159° (SSE) 2,305 6.1 -8.0°
Sets 23:16:09 0° 158° (SSE) 3,229 6.8 -7.9°
